This is the latest recevied weather packets stored in our database for station/object WB7AAV. If no packets are shown the sender has not sent any weather packets the latest 10 day(s).
| Time | Temp. | Humidity | Pressure | Rain* | Wind** | Luminosity | Snow |
|---|---|---|---|---|---|---|---|
| 1777004140 | 7.78° C | 26% | 1011.9 hPa | 0 mm | - | - | - |
| 1777004021 | 7.78° C | 26% | 1011.9 hPa | 0 mm | - | - | - |
| 1777003899 | 7.22° C | 26% | 1011.9 hPa | 0 mm | - | - | - |
| 1777003779 | 7.22° C | 26% | 1011.8 hPa | 0 mm | - | - | - |
| 1777003659 | 7.78° C | 26% | 1011.9 hPa | 0 mm | - | - | - |
| 1777003538 | 7.78° C | 26% | 1011.8 hPa | 0 mm | - | - | - |
| 1777003418 | 8.33° C | 25% | 1011.8 hPa | 0 mm | - | - | - |
| 1777003296 | 8.33° C | 25% | 1011.8 hPa | 0 mm | - | - | - |
| 1777003175 | 8.89° C | 24% | 1011.8 hPa | 0 mm | - | - | - |
| 1777003052 | 9.44° C | 24% | 1011.8 hPa | 0 mm | - | - | - |
| 1777002930 | 9.44° C | 23% | 1011.7 hPa | 0 mm | - | - | - |
| 1777002811 | 9.44° C | 23% | 1011.7 hPa | 0 mm | - | - | - |
| 1777002688 | 9.44° C | 23% | 1011.7 hPa | 0 mm | - | - | - |
| 1777002568 | 9.44° C | 23% | 1011.8 hPa | 0 mm | - | - | - |
| 1777002447 | 9.44° C | 23% | 1011.7 hPa | 0 mm | - | - | - |
| 1777002329 | 9.44° C | 23% | 1011.7 hPa | 0 mm | - | - | - |
| 1777002205 | 9.44° C | 24% | 1011.5 hPa | 0 mm | - | - | - |
| 1777002083 | 9.44° C | 24% | 1011.5 hPa | 0 mm | - | - | - |
| 1777001963 | 9.44° C | 24% | 1011.5 hPa | 0 mm | - | - | - |
| 1777001843 | 9.44° C | 24% | 1011.4 hPa | 0 mm | - | - | - |
| 1777001729 | 9.44° C | 24% | 1011.5 hPa | 0 mm | - | - | - |
| 1777001605 | 9.44° C | 24% | 1011.5 hPa | 0 mm | - | - | - |
| 1777001485 | 9.44° C | 24% | 1011.5 hPa | 0 mm | - | - | - |
| 1777001363 | 8.89° C | 25% | 1011.5 hPa | 0 mm | - | - | - |
| 1777001244 | 8.89° C | 25% | 1011.5 hPa | 0 mm | - | - | - |
* Rain latest hour (hover to see other rain measurements)
** Current wind speed in m/s (hover to see current wind gust speed)